Location: Mohawk View
(42.7837°N, 73.7885°W)
Time: 08:33:54
(UTC+00:00)

Resurs 1-4 Rocket - Pass Details

Date: 17 June 2021
Orbit: 800 x 813 km, 98.6° (Epoch: 27 July)

Event Time Altitude Azimuth Distance (km) Brightness Sun altitude
Rises 07:32:03 0° 3° (N) 3,341 6.3 -14.7°
Reaches altitude 10° 07:34:39 10° 353° (N) 2,407 5.2 -14.4°
Maximum altitude 07:39:09 29° 295° (WNW) 1,461 3.3 -13.9°
Enters shadow 07:42:25 16° 246° (WSW) 2,012 3.6 -13.6°
